IRIDIUM 82 [-] (25467 NORAD) Tracking and Keplerian Element Data

This shows tracking and keplerian element data for the satellite.

Feedback or suggestion? Click here.




ElementValue
Catalog25467
NameIRIDIUM 82 [-]
Epoch Orbit4575
Epoch Day198.93677493
Epoch Year2018
RAAN199.9184
Inclination86.4011
Eccentricity0.0183571
Argument of Perigee60.6172
Mean Anonmoly301.3244
Mean Motion14.89948141
Decay Rate7.56E-06
L11 25467U 98051A 18198.93677493 .00000756 00000-0 53797-4 0 9995
L22 25467 86.4011 199.9184 0183571 60.6172 301.3244 14.89948141 45751

Live tracking and technical data element details for IRIDIUM 82 [-] (NORAD 25467). IRIDIUM 82 [-] can be tracked NOW for your location showing map with azimuth and elevation plus other details from your city location.

Track the satellite on the map from your city or location and see movement details for azimuth, elevation, latitude, longitude, range, height, and movement on the map or in text.







IsCatalogInMostPopularTable: catalog: 25467, numindb: 37
Update: records affected: 1



GetName: 25467 IRIDIUM 82 [-]

Hit Count: updated at: Fri, 20 Jul 2018 06:58:57 GMT